Dewpoint
10 7 10 11 11 9 7 7 7 7 7 7 5 3 -2 -6 -7 -14 -18 -15 -16 -13 -9 -9 -9 -9 -9 -9 -8 -9 2 6 8 7 9 10 10 7 6 6 6 6 5
10 8 10 10 8 8 7 8 8 8 7 6 3 -2 -6 -7 -9 -17 -15 -15 -13 -10 -9 -9 -9 -8 -8 -5 -0 -0 4 5 6 6 11 11 9 8 7 6 6 7 6
12 9 9 8 8 8 9 9 9 8 7 2 -2 -6 -9 -8 -16 -15 -14 -12 -10 -9 -7 -5 -4 -4 -4 -4 2 3 3 4 6 5 8 10 9 2 7 7 6 5 5
11 9 8 8 9 10 10 10 10 9 5 -1 -5 -10 -8 -12 -14 -13 -11 -9 -9 -7 -4 -3 -4 -4 -4 -4 -1 0 2 2 5 2 4 8 -5 -4 -1 -2 -1 -0 2
9 8 8 9 10 11 11 11 10 8 2 -3 -9 -9 -9 -13 -12 -10 -9 -9 -8 -5 -3 -3 -4 -4 -4 -4 -2 2 3 3 2 3 2 2 -0 -8 -4 1 2 3 3
8 9 10 11 11 12 12 11 10 5 -0 -5 -11 -7 -10 -12 -10 -9 -9 -7 -6 -4 -3 -3 -4 -4 -1 -2 -0 2 4 3 5 5 3 2 3 -4 -7 -3 2 5 5
11 11 11 12 12 12 12 11 8 3 -3 -8 -12 -7 -11 -11 -8 -9 -7 -6 -5 -3 -3 -3 -3 -3 3 2 1 2 -1 2 3 4 4 4 3 -3 -5 -5 -4 -2 -1
11 11 12 12 13 12 11 10 7 1 -8 -9 -14 -8 -12 -7 -8 -7 -6 -4 -4 -3 -2 -2 -2 -0 5 4 2 2 1 0 2 3 5 3 1 1 -6 -2 -1 -2 -3
12 12 12 12 12 8 8 9 5 -1 -11 -8 -13 -10 -6 -6 -8 -8 -6 -4 -3 -2 -2 -2 -2 4 5 5 3 2 2 -0 1 1 -1 -1 -1 -1 -3 -5 0 1 0
11 11 10 10 12 9 11 8 4 -6 -9 -11 -9 -5 -5 -5 -4 -5 -5 -5 -3 -2 -2 -0 2 4 5 4 4 3 2 2 -1 -1 -1 -1 -1 -2 -3 -5 -1 2 2
10 8 6 6 9 10 8 6 0 -9 -8 -5 -2 2 6 7 8 7 0 -1 -1 5 4 6 5 5 5 5 3 2 0 -1 -2 -1 -1 -1 -2 -1 -1 -2 -3 -2 -1
10 7 5 9 10 9 5 -0 -6 -7 -2 2 9 9 8 9 7 8 8 9 8 8 7 6 5 6 4 3 1 1 -0 -0 -2 -3 -3 -2 -1 -0 -1 -2 -3 -5 -6
11 10 9 9 9 4 -2 -0 2 5 6 8 10 10 9 10 9 9 8 8 8 7 6 6 6 5 4 1 0 -0 -1 -1 -1 -2 -1 -2 -1 0 0 -1 -2 -3 -5
11 9 10 11 9 6 6 7 8 8 6 6 11 10 9 5 8 5 8 8 7 6 6 6 5 4 3 2 -1 -3 -2 -2 -2 -2 -1 -1 -2 -2 1 -0 -1 -1 -2
11 10 11 11 8 8 7 8 9 10 11 11 8 10 9 8 6 4 5 5 4 5 4 4 5 5 2 -3 -3 -2 -1 -1 -2 -3 -2 -2 -2 -2 -1 0 0 -0 -1
10 11 11 8 7 7 9 9 8 10 10 8 3 4 5 6 7 7 7 5 4 1 -0 2 2 -2 -3 -2 -1 -2 -1 -1 -1 -3 -4 -3 -2 -2 -1 1 0 0 -0
10 9 7 8 8 7 8 7 6 6 4 3 3 4 5 7 8 7 6 4 -1 -3 -1 -2 -2 -2 -2 -2 -1 -0 -1 -1 -2 -2 -3 -4 -7 -6 -5 1 1 0 0
9 7 7 9 9 7 6 6 3 3 4 4 4 3 4 5 4 1 -2 -4 -3 -2 -2 -1 0 1 1 0 -2 -1 -1 -3 -3 -2 -5 -6 -6 -2 -1 -0 -0 -1 -2
6 7 11 10 9 7 5 4 5 5 4 4 3 0 -3 -4 -4 -4 -2 0 0 0 1 1 1 1 -1 0 1 0 -2 -4 -4 -7 -6 -5 -4 -4 -6 -4 -4 -5 -4
6 10 10 10 7 7 6 6 6 5 4 3 0 -3 -3 -3 -1 -1 -0 -0 -0 1 1 1 1 -3 -2 -0 0 -1 -5 -5 -6 -7 -7 -7 -7 -8 -8 -7 -7 -7 -6
8 9 10 8 8 6 7 5 5 3 2 -1 0 -2 -1 -1 -1 -1 -1 -0 -2 -4 -3 -2 -4 -2 -3 -4 -4 -2 -3 -6 -6 -6 -7 -7 -8 -9 -10 -10 -10 -10 -9
9 9 9 8 8 6 9 5 4 3 2 1 -1 0 1 1 -1 -2 -3 -5 -5 -6 -8 -8 -5 -4 -6 -3 -1 -2 -4 -5 -6 -6 -6 -7 -10 -10 -10 -11 -11 -10 -10
9 9 9 8 6 9 9 6 5 4 2 1 1 2 1 1 -1 -3 -6 -10 -13 -12 -11 -10 -6 -4 -2 -2 -2 -3 -4 -5 -5 -6 -8 -9 -10 -10 -11 -11 -11 -11 -11
10 10 10 9 8 9 7 5 5 3 2 2 2 2 1 -2 -7 -13 -21 -25 -24 -25 -25 -20 -12 -6 -2 -2 -1 -2 -3 -4 -7 -8 -9 -9 -9 -10 -12 -13 -10 -11 -11
10 10 10 10 9 5 5 4 2 1 3 2 1 1 -4 -5 -14 -20 -25 -25 -26 -27 -18 -9 -4 -2 -1 -1 -2 -3 -3 -4 -6 -8 -8 -8 -9 -9 -10 -9 -10 -11 -12
9 10 9 9 8 5 3 2 1 2 3 2 1 -3 -1 -3 -14 -23 -25 -26 -27 -17 -7 -3 -2 -1 -1 -2 -5 -6 -4 -6 -7 -8 -8 -9 -9 -11 -11 -11 -10 -11 -11
Wind_Speed
28 26 24 23 23 23 22 21 19 18 17 16 15 14 14 15 16 16 18 18 18 18 19 20 22 23 24 23 21 20 21 19 17 15 12 11 13 12 8 8 9 11 11
33 22 24 24 23 24 22 21 19 17 17 15 14 14 14 15 17 16 17 17 17 19 22 23 25 26 26 26 26 24 21 18 15 13 11 13 14 13 9 8 8 9 10
26 27 25 26 25 24 22 20 18 17 16 14 13 14 14 16 16 16 16 16 18 21 23 25 26 27 26 24 24 23 20 15 15 15 13 12 17 14 9 8 9 8 9
31 35 30 28 26 24 22 19 18 16 15 14 13 14 15 16 16 15 15 17 19 22 23 24 26 27 29 25 19 20 22 18 12 15 14 12 19 12 11 9 9 9 10
37 35 32 29 27 24 21 19 18 17 15 13 13 14 15 15 15 15 17 19 19 20 21 22 23 24 26 27 23 17 19 18 15 15 13 14 21 19 12 10 9 8 8
34 32 29 27 24 22 20 18 16 16 14 14 13 14 14 15 15 16 18 19 19 18 18 18 19 21 23 25 23 18 17 21 16 11 13 12 18 23 17 13 11 9 9
33 31 29 26 23 22 21 15 13 13 13 13 13 14 14 14 15 16 17 17 16 15 14 14 16 18 20 22 21 21 21 16 21 14 11 13 18 21 18 15 14 13 11
34 31 29 25 24 23 17 14 13 13 12 13 13 14 13 14 15 15 15 15 13 12 10 11 14 15 17 18 20 16 17 21 19 16 14 17 19 20 20 14 13 13 14
27 25 22 17 15 23 14 14 13 11 11 12 14 15 14 13 13 12 12 11 9 8 8 10 12 13 13 14 16 12 11 17 18 15 18 18 18 19 20 15 12 12 13
18 17 16 15 14 17 16 13 12 11 12 14 16 16 15 14 12 11 7 6 5 7 8 9 11 9 10 10 8 9 11 12 14 15 16 16 18 21 22 15 12 11 12
22 26 26 25 21 19 17 15 13 12 15 17 17 16 14 11 11 10 10 9 8 11 8 10 12 7 7 11 13 13 14 15 14 12 13 15 18 19 19 17 13 11 11
29 23 21 19 16 15 15 15 14 16 18 19 16 13 11 10 9 9 9 8 10 8 9 9 8 6 10 10 12 12 15 15 12 12 16 20 17 19 19 18 16 14 11
29 26 21 20 19 14 14 19 17 16 18 20 12 13 11 10 9 5 4 2 7 9 6 5 4 3 2 5 8 13 16 16 15 13 13 15 16 17 19 17 18 16 13
30 28 26 24 20 19 19 20 18 17 14 16 13 12 5 4 2 3 3 3 3 2 3 5 5 6 7 10 16 16 14 16 14 14 16 15 17 19 21 21 21 20 21
27 28 25 21 19 18 18 19 16 13 13 11 8 5 1 3 3 5 4 4 2 3 7 11 11 13 17 19 17 10 13 14 12 10 13 15 16 16 21 22 18 17 19
27 27 26 27 23 24 22 21 17 16 13 8 5 1 5 6 4 4 3 2 2 8 11 12 14 16 18 14 12 14 15 14 14 14 14 16 18 17 16 20 14 15 17
27 21 24 30 26 24 22 20 16 14 7 4 5 2 4 5 3 3 3 4 7 8 11 13 17 18 18 16 19 13 14 15 16 17 16 13 19 21 20 13 13 15 17
24 20 34 28 25 22 19 18 12 5 3 1 5 6 6 4 3 2 4 6 7 9 13 14 13 12 13 18 17 11 13 17 18 16 19 17 15 11 8 6 11 13 10
17 29 26 25 23 22 22 15 6 6 4 7 9 7 7 5 3 3 6 9 9 5 8 12 14 17 22 16 14 17 17 16 16 16 14 11 4 6 13 14 12 17 16
21 28 25 22 23 25 19 6 9 12 13 11 9 6 5 3 3 3 6 9 11 10 12 15 17 20 17 17 20 23 13 13 15 14 12 12 12 12 13 12 14 15 16
23 29 25 25 25 24 13 9 16 16 12 8 6 8 4 3 5 6 7 10 14 15 15 18 18 16 18 22 21 20 21 16 10 15 17 15 16 22 23 23 24 25 26
28 26 22 21 23 20 14 12 15 14 10 8 7 6 5 2 5 8 12 12 15 16 17 15 17 19 16 17 18 19 13 19 10 14 17 19 24 20 21 18 18 18 15
30 29 22 19 19 22 22 21 23 18 13 13 11 8 5 7 10 12 14 16 18 19 19 19 18 16 14 14 16 14 7 6 21 11 20 8 14 18 19 19 19 17 15
29 26 22 20 24 20 29 24 27 24 21 19 17 13 10 11 14 15 17 16 16 17 17 17 16 17 19 20 15 13 14 16 16 14 12 16 15 18 20 24 17 20 23
29 28 25 26 27 28 25 25 26 24 25 25 20 14 9 11 14 15 15 15 16 17 14 13 13 14 17 16 14 16 18 21 14 16 21 21 22 22 19 17 22 22 20
25 26 28 31 31 29 26 25 27 29 29 24 17 11 10 15 14 14 14 15 16 13 12 13 14 15 15 16 20 17 15 9 11 15 17 22 23 24 23 25 21 23 23
Wind_Direction
159 156 158 151 145 142 137 131 127 122 117 113 106 95 92 89 89 89 87 81 74 69 69 69 68 67 65 64 66 72 72 68 56 40 32 46 43 46 35 23 19 20 23
151 157 157 152 149 143 137 134 128 123 118 112 103 99 95 92 95 95 87 80 75 78 79 76 72 69 65 66 71 76 71 58 48 46 48 54 38 34 28 23 26 26 22
146 161 163 155 151 143 139 135 130 126 118 112 107 103 100 100 101 94 86 84 88 88 84 79 73 66 64 68 77 76 66 57 75 40 56 22 22 20 33 28 31 28 23
161 161 162 153 148 143 140 137 131 124 119 112 109 106 104 107 103 94 91 91 93 92 88 80 73 66 60 62 78 74 66 62 63 42 32 20 1 8 21 26 33 24 15
156 158 156 152 146 145 143 136 133 127 116 112 111 109 112 111 103 97 97 98 97 92 86 76 66 60 55 56 65 79 69 51 45 30 23 13 24 18 24 26 27 24 21
155 153 150 146 146 143 136 130 131 119 116 113 113 114 116 114 108 106 105 103 101 97 89 74 64 55 49 52 60 67 67 49 43 17 12 14 7 13 14 19 22 21 19
150 147 146 146 147 141 129 130 126 125 119 118 118 121 122 114 111 112 110 108 103 97 86 72 59 49 44 46 53 51 53 44 27 21 17 12 9 13 9 16 16 11 9
142 144 147 148 141 111 121 136 132 127 121 125 125 121 116 115 116 114 113 111 105 96 85 65 53 47 44 41 47 45 45 29 23 25 10 5 359 357 358 5 9 8 5
142 147 117 96 135 112 138 136 135 129 124 124 119 119 116 111 112 116 117 113 106 90 69 54 50 48 43 40 44 42 29 33 18 6 356 352 355 348 346 346 349 351 350
143 115 115 130 130 128 138 143 137 129 121 120 116 117 112 113 109 106 111 107 91 65 55 52 45 50 35 35 31 25 6 10 0 1 345 338 341 336 336 339 338 338 333
130 109 106 139 146 142 151 140 128 121 119 119 120 122 116 107 100 76 75 67 55 43 42 39 35 15 359 347 349 347 340 343 346 326 334 335 336 332 331 335 327 322 322
131 127 127 143 146 145 133 125 126 124 122 122 113 113 105 90 70 69 69 78 59 50 54 31 28 16 8 10 355 348 343 340 341 329 315 322 333 339 339 335 334 326 315
139 150 151 156 140 134 137 135 134 135 129 132 111 120 125 142 144 136 143 158 102 92 52 67 351 346 315 337 351 337 335 339 328 333 317 310 328 343 337 332 326 322 313
147 147 154 146 129 125 119 118 119 113 116 137 137 131 170 167 211 197 206 176 218 264 287 279 279 274 302 316 320 328 325 329 342 341 336 321 311 323 326 320 320 318 316
147 144 142 143 136 149 146 140 135 133 139 138 129 122 168 289 227 197 219 277 288 291 308 297 299 303 304 309 321 317 317 326 322 325 351 342 332 329 319 314 307 311 316
147 150 151 148 152 154 151 149 145 157 158 135 91 308 248 253 272 252 283 260 239 304 311 309 307 307 309 314 318 313 315 307 303 300 301 327 320 312 328 309 299 304 308
156 158 154 153 154 159 164 157 158 177 179 250 350 185 236 243 260 267 262 242 303 317 306 299 296 304 307 306 315 312 319 314 302 298 299 307 328 322 319 301 298 309 307
163 154 148 160 161 162 151 158 173 217 302 257 132 131 135 146 158 209 260 299 306 300 290 292 302 295 292 297 318 301 310 312 311 308 300 302 316 10 8 312 311 318 308
167 153 161 165 167 164 164 170 265 226 197 161 157 153 149 169 176 247 299 310 317 309 273 275 281 292 304 318 308 306 308 322 329 313 317 318 310 15 7 341 307 305 301
166 161 173 175 170 171 175 195 187 153 161 162 162 184 154 163 132 240 271 297 302 297 282 285 293 301 306 301 300 302 301 293 313 298 306 293 292 304 328 338 325 318 307
172 172 181 175 174 179 188 191 157 163 167 159 165 166 202 288 319 309 290 277 290 297 298 298 303 303 306 305 305 296 302 301 282 275 286 298 311 312 311 307 315 316 317
179 179 183 184 184 191 188 169 174 170 172 158 187 189 184 231 290 293 298 298 302 305 308 309 305 306 307 299 300 299 316 308 279 283 284 289 308 307 304 316 329 323 323
182 184 186 178 185 185 204 183 174 179 168 166 168 171 218 289 305 307 300 300 301 301 302 303 302 306 303 296 294 297 319 325 325 315 335 323 301 297 302 309 326 321 316
182 190 186 178 177 196 185 183 180 180 177 174 180 195 232 277 293 302 300 302 307 304 300 295 291 286 290 293 287 277 286 305 341 332 319 324 317 311 305 303 322 318 317
191 184 182 185 186 183 190 203 196 194 189 186 195 221 273 308 311 303 305 309 310 313 307 300 301 297 289 290 304 308 299 298 290 302 315 315 309 312 319 317 313 318 315
208 188 194 192 192 194 196 200 201 199 198 203 218 248 303 312 298 299 308 312 317 315 304 308 299 295 294 299 303 307 299 299 294 299 304 311 317 320 317 312 307 308 305
Height
1540 1543 1546 1549 1550 1551 1553 1555 1556 1558 1559 1562 1563 1565 1566 1567 1567 1572 1571 1573 1573 1574 1574 1574 1574 1574 1572 1572 1571 1571 1572 1570 1571 1571 1570 1571 1570 1569 1571 1570 1570 1569 1567
1536 1547 1549 1550 1552 1551 1554 1555 1557 1559 1559 1562 1564 1564 1568 1569 1569 1573 1573 1574 1576 1576 1576 1577 1577 1576 1575 1574 1574 1574 1573 1574 1574 1572 1571 1572 1570 1570 1571 1569 1569 1568 1567
1531 1544 1549 1549 1552 1552 1554 1556 1557 1560 1560 1563 1565 1566 1568 1568 1572 1573 1575 1576 1576 1577 1578 1579 1578 1579 1577 1577 1577 1577 1577 1576 1575 1573 1571 1571 1572 1571 1571 1570 1569 1567 1568
1529 1539 1548 1549 1552 1553 1555 1556 1559 1560 1562 1564 1566 1567 1568 1571 1573 1573 1576 1577 1579 1579 1580 1581 1580 1581 1580 1580 1579 1579 1579 1577 1576 1576 1574 1572 1573 1573 1572 1571 1569 1568 1567
1533 1539 1546 1548 1550 1553 1555 1558 1559 1560 1561 1565 1568 1570 1570 1572 1573 1574 1576 1577 1581 1581 1583 1583 1583 1583 1583 1582 1582 1580 1581 1579 1579 1579 1578 1576 1574 1574 1572 1572 1570 1570 1568
1534 1541 1545 1548 1550 1553 1556 1559 1561 1560 1563 1566 1569 1571 1573 1573 1574 1575 1577 1579 1581 1583 1583 1585 1585 1586 1585 1584 1583 1583 1582 1581 1580 1579 1577 1577 1575 1574 1573 1572 1571 1570 1569
1532 1540 1545 1547 1549 1554 1555 1561 1563 1563 1565 1567 1569 1572 1574 1575 1576 1577 1579 1580 1583 1584 1586 1586 1587 1587 1588 1586 1584 1583 1584 1582 1581 1579 1578 1576 1575 1574 1574 1573 1571 1570 1569
1532 1540 1543 1546 1547 1550 1557 1562 1566 1567 1566 1567 1570 1573 1576 1577 1578 1579 1580 1581 1584 1585 1587 1588 1588 1587 1588 1587 1586 1585 1584 1582 1582 1579 1579 1576 1576 1574 1574 1573 1571 1570 1569
1540 1541 1533 1542 1545 1553 1559 1562 1564 1567 1567 1570 1571 1574 1576 1578 1580 1581 1582 1582 1584 1586 1587 1587 1589 1588 1587 1586 1588 1585 1584 1583 1583 1581 1579 1576 1576 1574 1574 1571 1571 1569 1568
1545 1542 1543 1550 1552 1557 1561 1564 1565 1567 1568 1572 1572 1575 1577 1578 1580 1582 1583 1583 1586 1586 1587 1589 1588 1589 1587 1586 1586 1585 1584 1585 1583 1580 1580 1576 1575 1574 1573 1570 1569 1568 1567
1549 1552 1553 1552 1558 1560 1564 1566 1567 1569 1571 1572 1573 1575 1578 1579 1581 1582 1584 1585 1588 1588 1588 1589 1590 1587 1587 1586 1585 1583 1583 1584 1581 1580 1577 1576 1573 1572 1571 1569 1568 1567 1565
1546 1549 1551 1554 1558 1563 1564 1566 1567 1570 1572 1573 1575 1577 1578 1580 1582 1584 1585 1586 1588 1588 1588 1588 1589 1586 1584 1585 1583 1582 1581 1581 1580 1580 1576 1574 1572 1570 1568 1567 1565 1565 1564
1546 1548 1553 1558 1561 1563 1564 1565 1569 1570 1571 1573 1574 1577 1579 1581 1582 1583 1584 1586 1586 1586 1586 1586 1586 1586 1582 1582 1582 1581 1580 1579 1578 1576 1574 1572 1570 1569 1567 1563 1564 1561 1561
1546 1549 1555 1558 1561 1564 1566 1567 1569 1569 1571 1574 1576 1578 1579 1581 1582 1583 1585 1586 1586 1585 1585 1584 1583 1583 1582 1580 1580 1579 1578 1577 1576 1574 1571 1570 1569 1567 1565 1563 1560 1558 1556
1547 1552 1555 1558 1560 1564 1566 1568 1569 1570 1572 1575 1576 1577 1579 1580 1581 1582 1583 1583 1582 1583 1583 1582 1582 1581 1580 1578 1577 1577 1576 1575 1573 1571 1569 1568 1567 1565 1563 1560 1558 1555 1552
1548 1551 1555 1560 1563 1565 1566 1566 1568 1571 1571 1574 1575 1576 1577 1579 1580 1580 1580 1581 1581 1581 1580 1579 1578 1578 1576 1575 1575 1574 1573 1571 1569 1569 1567 1565 1563 1561 1559 1557 1555 1552 1550
1548 1550 1554 1558 1559 1562 1565 1566 1567 1567 1571 1572 1573 1574 1577 1578 1578 1578 1579 1581 1580 1578 1576 1576 1576 1575 1574 1572 1571 1570 1569 1568 1567 1566 1564 1562 1560 1557 1555 1554 1552 1549 1547
1547 1550 1553 1556 1558 1562 1564 1566 1567 1567 1568 1569 1571 1573 1575 1575 1577 1578 1578 1578 1575 1575 1575 1573 1573 1572 1570 1568 1566 1566 1565 1564 1563 1563 1560 1559 1556 1554 1553 1552 1549 1546 1543
1545 1549 1551 1555 1557 1560 1561 1563 1565 1566 1567 1569 1572 1572 1575 1576 1576 1575 1574 1574 1573 1573 1572 1571 1570 1567 1565 1563 1562 1561 1562 1560 1559 1557 1556 1556 1554 1553 1552 1550 1547 1543 1540
1543 1547 1550 1553 1556 1558 1561 1563 1564 1565 1566 1569 1570 1571 1573 1574 1573 1573 1573 1572 1570 1569 1568 1567 1565 1563 1561 1559 1557 1556 1556 1555 1555 1553 1552 1551 1551 1551 1549 1547 1544 1541 1537
1541 1544 1548 1551 1554 1557 1560 1561 1563 1563 1564 1567 1569 1571 1571 1570 1571 1571 1571 1570 1568 1566 1564 1562 1560 1558 1557 1553 1551 1551 1550 1551 1549 1548 1546 1547 1547 1546 1545 1543 1540 1536 1532
1537 1542 1545 1550 1553 1555 1557 1560 1561 1561 1564 1567 1568 1569 1569 1569 1569 1568 1567 1565 1563 1561 1559 1557 1555 1553 1552 1550 1548 1546 1544 1544 1544 1544 1544 1545 1542 1540 1540 1539 1537 1533 1530
1534 1538 1542 1547 1550 1552 1554 1557 1560 1561 1563 1563 1564 1564 1564 1565 1565 1564 1563 1561 1559 1557 1555 1553 1551 1549 1548 1547 1545 1545 1543 1542 1540 1540 1541 1541 1540 1538 1538 1537 1534 1531 1528
1532 1536 1539 1542 1546 1549 1551 1553 1554 1556 1557 1559 1559 1561 1562 1562 1562 1560 1558 1556 1555 1553 1551 1549 1548 1546 1544 1543 1544 1543 1543 1542 1539 1536 1538 1538 1538 1536 1535 1533 1531 1528 1525
1533 1535 1539 1541 1543 1546 1548 1550 1551 1552 1553 1554 1557 1558 1559 1558 1556 1555 1553 1552 1551 1549 1547 1545 1545 1544 1542 1542 1540 1539 1539 1537 1536 1535 1531 1531 1531 1532 1530 1529 1527 1524 1521
1533 1533 1535 1537 1540 1542 1544 1545 1546 1547 1548 1551 1553 1554 1554 1553 1552 1550 1549 1547 1547 1546 1545 1544 1542 1541 1540 1538 1537 1536 1534 1533 1532 1531 1528 1526 1525 1525 1524 1524 1522 1520 1517